094  
ASUS42 KMHX 231026  
RWRMHX  
WEATHER ROUNDUP FOR EASTERN NORTH CAROLINA  
NATIONAL WEATHER SERVICE NEWPORT/MOREHEAD CITY NC  
600 AM EDT SUN JUL 23 2017  
 
NOTE: "FAIR" INDICATES FEW OR NO CLOUDS BELOW 12,000 FEET  
WITH NO SIGNIFICANT WEATHER AND/OR S TO VISIBILITY
 
 
NCZ015>017-031-032-045>047-102-103-231100-  
NORTH COAST  
 
CITY SKY/WX TMP DP RH WIND PRES REMARKS
 
EDENTON PTCLDY 81 76 83 SW5 29.85S  
ELIZABETH CITY CLEAR 79 77 94 SW12 29.83R  
KITTY HAWK MOSUNNY 80 74 82 SW8 29.82F  
MANTEO PTCLDY 80 75 83 SW18 29.84F  
 

 
 
NCZ045>047-081-094-103-104-231100-  
CENTRAL COAST  
 
CITY SKY/WX TMP DP RH WIND PRES REMARKS
 
FRISCO CLEAR 76 73 91 SW10 29.89R  
 

 
 
NCZ095-097-098-100-101-231100-  
SOUTHERN COAST  
 
CITY SKY/WX TMP DP RH WIND PRES REMARKS
 
BEAUFORT CLEAR 81 79 94 SW14 29.91R  
CEDAR ISLAND NOT AVBL  
JACKSONVILLE CLEAR 77 75 93 SW8 29.90R  
PINEY ISLAND N/A N/A N/A N/A SW10 29.90R  
WILMINGTON CLEAR 79 77 94 S10 29.92R  
 

 
 
NCZ011>013-027>030-043-044-078>080-089-090>093-098-231100-  
COASTAL PLAIN  
 
CITY SKY/WX TMP DP RH WIND PRES REMARKS
 
AHOSKIE N/A 76 74 93 S6 29.83S  
CLINTON CLEAR 76 76 97 S3 29.90R  
ELIZABETHTOWN NOT AVBL  
GOLDSBORO CLEAR 79 79 100 SW8 29.86R  
GREENVILLE CLEAR 79 75 89 SW9 29.88S  
HAVELOCK CLEAR 78 73 84 SW12 29.91R  
KENANSVILLE PTCLDY 77 73 88 CALM 29.90R  
KINSTON CLEAR 78 74 87 SW9 29.88S  
NEW BERN PTCLDY 77 75 93 SW9 29.90R  
RICHLANDS CLEAR 76 74 93 S10 29.91R  
ROCKY MOUNT CLEAR 78 75 90 S12 29.84S  
WASHINGTON CLEAR 77 74 88 SW10 29.86F  
WHITEVILLE PTCLDY 77 74 90 SW3 29.92R  
 

 
 
AMZ130-135-150-152-154-156-158-170-250-252-270-ANZ085-086-088-633-658-670-231100-  
MARINE OBSERVATIONS  
 
STATION/POSITION TIME TEMP WIND PRES WAVE SWELL
 
AIR SEA DIR/SP/G HT/PER HT/PER  
(UTC) (F) (DEG/KT/KT) (MB) (FT/S) (FT/S)  
CHESAPEAKE LIGHT NOT AVBL  
64 E VA BEACH 0950 80 80 230/ 17/ 19 1009.4 5/ 6 2/ 9  
DUCK 1000 81 58 230/ 16/ 21 1009.8  
2 E DUCK 1000 62 N/A 2/ 9  
OREGON INLET 1000 81 84 220/ 19/ 24 1010.7  
13E OREGON INLT 0948 79 N/A 4/ 6 2/ 8  
HATTERAS CG 1000 77 76 230/ 10/ 15 1012.1  
DIAMOND BUOY 0950 83 85 240/ 23/ 27 1011.8 5/ 6 2/ 9  
CAPE LOOKOUT 1000 81 230/ 12/ 18 1012.7  
BEAUFORT LAB 1000 80 79 220/ 5/ 11 1012.3  
30 SE NEW RVR IN 1008 81 81 240/ 17/ 23 1013.6  
30 SE NEW RVR IN 1013 81 N/A 6/ 5  
27 SE WRIGHTSVLE 1008 82 82 230/ 16/ 21 1013.3  
5 SE WRIGHTSVLE 1008 80 78 220/ 12/ 17 1013.3  
225 S CAPE HAT 0950 83 83 220/ 17/ 19 1016.0 5/ 9 2/ 9  
41 SE CHARLESTON 1010 81 83 230/ 16/ 19 1014.0  
 

 
 
 
CLICK HERE TO GO TO PREVIOUS BULLETINS.

The Nexlab NC Page Main Text Page